Location: Caualo
(45.5667°N, 10.8667°E)
Time: 00:25:16
(UTC+00:00)

In-Cosmos 22 Rocket - Pass Details

Date: 09 October 2020
Orbit: 790 x 889 km, 81.2° (Epoch: 27 October)

Event Time Altitude Azimuth Distance (km) Brightness Sun altitude
Rises 20:59:42 0° 338° (NNW) 3,306 8.0 -42.8°
Reaches altitude 10° 21:02:26 10° 326° (NW) 2,366 7.1 -43.1°
Enters shadow 21:03:24 14° 318° (NW) 2,075 6.8 -43.2°
